Flag for United Kingdom Weather past 2 weeks in Glasgow, Scotland, United Kingdom

Now
43 °F

Passing clouds.


Feels Like: 35 °F
Forecast: 38 / 43 °F
Wind: 15 mph from West

Location: Glasgow Airport

Current Time: Jan 26, 2015 at 3:30:54 AM

Latest Report: Jan 26, 2015 at 2:50 AM


Visibility: N/A

Pressure: 30.01 "Hg

Humidity: 81%

Dew point: 37 °F

Location of GlasgowLocation

Historic Weather in Glasgow — Graph

°F

Glasgow temperature yesterday

Maximum temperature yesterday: 48 °F (at 2:50 PM)
Minimum temperature yesterday: 43 °F (at 12:20 AM)
Average temperature yesterday: 46 °F

Past Weeks' High & Low Weather Summary

 TemperatureHumidityPressure
High48 °F (Jan 12, 6:20 AM)100% (Jan 12, 5:50 AM)30.27 "Hg (Jan 12, 5:50 AM)
Low19 °F (Jan 20, 2:50 AM)56% (Jan 18, 5:50 PM)28.41 "Hg (Jan 15, 11:20 AM)
Average36 °F87%29.65 "Hg
* Reported Jan 11 2:20 AM — Jan 26 2:20 AM, Glasgow, Weather by CustomWeather, © 2014

Note: Actual official high and low records may vary slightly from our data, if they occured in-between our weather recording intervals... More about our weather records

Advertising

Glasgow weather history for previous 24 hours

 ConditionsComfort  
Time TempWeatherWind HumidityBarometerVisibility
2:20 AM
Jan 26
43 °FPassing clouds.10 mph87%30.01 "HgN/A
1:50 AM45 °FPassing clouds.13 mph87%30.01 "HgN/A
1:20 AM45 °FPassing clouds.16 mph87%29.98 "HgN/A
12:50 AM43 °FQuite cool.10 mph93%29.98 "HgN/A
12:20 AM43 °FPassing clouds.8 mph93%30.01 "HgN/A
11:50 PM
Jan 25
45 °FPartly cloudy.9 mph93%30.01 "HgN/A
11:20 PM46 °FLight rain. Passing clouds.13 mph87%30.01 "Hg3 mi
10:50 PM46 °FPassing clouds.12 mph93%30.01 "HgN/A
10:20 PM46 °FLight rain. Partly cloudy.9 mph93%30.01 "Hg4 mi
9:20 PM46 °FScattered showers. Partly cloudy.12 mph93%29.98 "HgN/A
8:50 PM46 °FLight rain. Passing clouds.10 mph93%29.98 "HgN/A
8:20 PM46 °FLight rain. Passing clouds.9 mph93%30.01 "HgN/A
7:50 PM48 °FLight rain. Partly cloudy.13 mph87%30.01 "HgN/A
7:20 PM48 °FPartly cloudy.15 mph94%30.01 "HgN/A
6:50 PM48 °FPartly cloudy.18 mph100%29.98 "Hg6 mi
6:20 PM48 °FPartly cloudy.21 mph100%29.98 "HgN/A
5:50 PM48 °FLight rain. Mostly cloudy.21 mph94%29.98 "Hg4 mi
5:20 PM48 °FLight rain. Passing clouds.23 mph94%29.98 "Hg4 mi
4:50 PM48 °FLight rain. Mostly cloudy.26 mph94%29.98 "Hg2 mi
4:20 PM48 °FDrizzle. Low clouds.23 mph94%30.01 "Hg3 mi
3:50 PM48 °FLight rain. Low clouds.21 mph94%30.01 "Hg2 mi
3:20 PM48 °FLight rain. Low clouds.18 mph94%30.04 "HgN/A
2:50 PM48 °FDrizzle. Low clouds.20 mph94%30.04 "Hg2 mi
2:20 PM46 °FLow clouds.21 mph100%30.04 "Hg4 mi
1:50 PM46 °FLow clouds.21 mph100%30.07 "HgN/A
1:20 PM46 °FLow clouds.18 mph93%30.07 "Hg4 mi
12:50 PM46 °FLow clouds.20 mph93%30.09 "HgN/A
12:20 PM46 °FLow clouds.24 mph93%30.09 "HgN/A
11:50 AM46 °FLight rain. Low clouds.22 mph93%30.09 "HgN/A
11:20 AM46 °FDrizzle. Low clouds.22 mph93%30.12 "Hg3 mi
10:50 AM46 °FLight rain. Partly sunny.18 mph93%30.12 "Hg5 mi
10:20 AM45 °FLight rain. Low clouds.17 mph93%30.12 "Hg2 mi
9:50 AM45 °FLow clouds.18 mph93%30.15 "Hg2 mi
9:20 AM45 °FLow clouds.13 mph93%30.15 "HgN/A
8:50 AM45 °FLow clouds.8 mph93%30.15 "Hg5 mi
8:20 AM45 °FLow clouds.8 mph93%30.15 "Hg4 mi
7:50 AM45 °FLow clouds.10 mph87%30.18 "Hg4 mi
7:20 AM45 °FLow clouds.15 mph87%30.18 "HgN/A
6:50 AM45 °FLight rain. Low clouds.16 mph87%30.18 "HgN/A
6:20 AM43 °FLight rain. Overcast.10 mph93%30.18 "HgN/A
5:50 AM43 °FLight rain. Mostly cloudy.14 mph93%30.18 "HgN/A
5:20 AM43 °FOvercast.16 mph93%30.18 "HgN/A
4:50 AM43 °FLight rain. Passing clouds.15 mph93%30.21 "HgN/A
4:20 AM43 °FPassing clouds.16 mph93%30.21 "HgN/A
3:20 AM43 °FLight rain. Mostly cloudy.14 mph87%30.24 "HgN/A
Weather by CustomWeather, © 2014

See weather overviewHow to use our weather pages